[[{"header":{"parameterUnit":"m.s-1","parameterCategory":1,"la1":30.2992,"la2":30.254,"lo1":-89.0895,"lo2":-89.0443,"dy":0.0025,"dx":0.0025,"nx":19,"ny":19,"refTime":"2026-04-03T09:00:00:Z","depth":0,"parameterNumber":2,"parameterNumberName":"U-component_of_WINDS"},"data":[0,0,0,-4.7403,-4.7407,-4.7549,-4.755,-4.7735,-4.7737,0,0,0,0,0,0,0,0,0,0,0,-4.7364,-4.7365,-4.7403,-4.7407,-4.7549,-4.755,-4.7735,-4.7737,0,0,0,0,0,0,0,0,0,0,0,-4.7363,-4.7365,-4.7366,-4.7407,-4.7549,-4.755,-4.7734,-4.7625,0,0,0,0,0,0,0,0,0,0,-4.7486,-4.7452,-4.7364,-4.7367,-4.7408,-4.7549,-4.755,-4.762,-4.7632,-4.7672,0,-4.7709,0,-4.7726,-4.7749,-4.775,0,0,0,-4.7405,-4.7442,-4.7479,-4.7367,-4.741,-4.7549,-4.7484,-4.7627,-4.7641,-4.7688,-4.7711,-4.7718,-4.7729,-4.7751,-4.7752,-4.7991,-4.7992,0,0,-4.7397,-4.739,-4.7469,-4.7488,-4.7467,-4.748,-4.7489,-4.7635,-4.766,-4.7712,-4.7723,-4.7732,-4.7752,-4.7753,-4.7989,-4.7991,0,0,0,-4.7376,-4.7385,-4.7418,-4.748,-4.7506,-4.7484,-4.7494,-4.7653,-4.7664,-4.7724,-4.7734,-4.7753,-4.7755,-4.7988,-4.799,-4.8043,0,0,0,-4.7371,-4.7373,-4.7414,-4.7412,-4.7503,-4.7582,-4.7509,-4.7654,-4.7671,-4.7733,-4.7753,-4.7757,-4.7987,-4.7989,-4.8039,-4.8068,0,0,0,-4.7354,-4.7371,-4.7392,-4.7411,-4.7473,-4.7579,-4.7599,-4.7658,-4.7677,-4.775,-4.7758,-4.7986,-4.7989,-4.8035,-4.8062,-4.8128,0,0,0,-4.7333,-4.7437,-4.7393,-4.7514,-4.7471,-4.7612,-4.7598,-4.7703,-4.7772,-4.7754,-4.7987,-4.799,-4.8034,-4.8058,-4.8124,-4.818,-4.8204,0,0,-4.7461,-4.7453,-4.7524,-4.7489,-4.7636,-4.7591,-4.7746,-4.7815,-4.7827,-4.7935,-4.7941,-4.804,-4.8061,-4.8127,-4.8344,-4.8363,0,0,0,-4.7563,-4.7614,-4.7654,-4.772,-4.7777,-4.7827,-4.7873,-4.7899,-4.7991,-4.7882,-4.8084,-4.8096,-4.8135,-4.8162,-4.8178,-4.8211,-4.8003,-4.8003,-4.8002,-4.7732,-4.7744,-4.7863,-4.7892,-4.7957,-4.8005,-4.8058,-4.81,-4.8093,-4.8141,-4.8171,-4.8302,-4.8334,-4.8346,-4.838,-4.8205,-4.8205,-4.8205,-4.8205,-4.7919,-4.7992,-4.7982,-4.8093,-4.8105,-4.8198,-4.8249,-4.8241,-4.8328,-4.828,-4.8314,-4.8257,-4.8366,-4.8396,-4.821,-4.8209,-4.8208,-4.8208,-4.8208,-4.8029,-4.8066,-4.8097,-4.8194,-4.8269,-4.8295,-4.838,-4.8389,-4.8397,-4.8432,-4.8464,-4.8463,-4.8461,-4.8447,-4.8448,-4.8448,-4.8449,-4.8449,-4.8449,-4.8129,-4.8163,-4.8234,-4.8304,-4.8348,-4.8407,-4.8458,-4.8501,-4.8551,-4.855,-4.855,-4.8536,-4.8376,-4.8334,-4.8456,-4.8455,-4.8454,-4.8454,-4.8453,-4.8308,-4.8269,-4.8379,-4.8423,-4.8506,-4.8579,-4.859,-4.8678,-4.8715,-4.8757,-4.8738,-4.8619,-4.861,-4.8597,-4.8562,-4.8736,-4.8736,-4.8736,-4.8736,-4.8398,-4.8396,-4.851,-4.858,-4.865,-4.8672,-4.8794,-4.8836,-4.8872,-4.8896,-4.8873,-4.8828,-4.8815,-4.8814,-4.8796,-4.8763,-4.8985,-4.8985,-4.8986,-4.8508,-4.8513,-4.8615,-4.8652,-4.8718,-4.8774,-4.889,-4.897,-4.9004,-4.8996,-4.8914,-4.8903,-4.8831,-4.8808,-4.8794,-4.8766,-4.8706,0,0]},{"header":{"parameterUnit":"m.s-1","parameterCategory":1,"la1":30.2992,"la2":30.254,"lo1":-89.0895,"lo2":-89.0443,"dy":0.0025,"dx":0.0025,"nx":19,"ny":19,"refTime":"2026-04-03T09:00:00:Z","depth":0,"parameterNumber":3,"parameterNumberName":"V-component_of_WINDS"},"data":[0,0,0,3.6767,3.6769,3.6857,3.6857,3.6969,3.697,0,0,0,0,0,0,0,0,0,0,0,3.6743,3.6744,3.6767,3.6769,3.6857,3.6857,3.6969,3.697,0,0,0,0,0,0,0,0,0,0,0,3.6743,3.6744,3.6745,3.677,3.6857,3.6857,3.6969,3.6902,0,0,0,0,0,0,0,0,0,0,3.6817,3.6797,3.6744,3.6745,3.677,3.6857,3.6857,3.6899,3.6906,3.693,0,3.6954,0,3.6964,3.6978,3.6978,0,0,0,3.6767,3.6791,3.6813,3.6745,3.6771,3.6856,3.6817,3.6903,3.6911,3.694,3.6956,3.696,3.6966,3.6978,3.6979,3.7133,3.7134,0,0,3.6762,3.6759,3.6808,3.6819,3.6808,3.6814,3.6819,3.6908,3.6924,3.6956,3.6962,3.6968,3.6979,3.698,3.7132,3.7133,0,0,0,3.675,3.6756,3.6776,3.6814,3.683,3.6816,3.6823,3.692,3.6927,3.6963,3.6969,3.698,3.6981,3.7131,3.7132,3.7173,0,0,0,3.6747,3.6749,3.6774,3.6773,3.6829,3.6877,3.6833,3.692,3.6931,3.6969,3.698,3.6982,3.713,3.7132,3.717,3.7191,0,0,0,3.6737,3.6748,3.6762,3.6773,3.6811,3.6875,3.6887,3.6923,3.6934,3.6978,3.6983,3.713,3.7131,3.7167,3.7187,3.7232,0,0,0,3.6724,3.6794,3.6762,3.6842,3.681,3.69,3.6887,3.6953,3.6996,3.6981,3.713,3.7132,3.7166,3.7184,3.7229,3.727,3.7287,0,0,3.681,3.6804,3.6851,3.6825,3.6921,3.6887,3.6988,3.7027,3.7032,3.7098,3.7102,3.7171,3.7187,3.7232,3.7383,3.7396,0,0,0,3.6877,3.6911,3.6937,3.6979,3.7013,3.7045,3.707,3.7085,3.7142,3.7067,3.7199,3.7209,3.7235,3.7255,3.7266,3.7289,3.7141,3.7141,3.7141,3.6992,3.6999,3.7077,3.7095,3.7135,3.7163,3.7196,3.7221,3.7211,3.7243,3.7262,3.7354,3.7377,3.7385,3.7409,3.7284,3.7285,3.7285,3.7285,3.7119,3.7168,3.7159,3.7231,3.7237,3.7297,3.7326,3.7318,3.7374,3.7339,3.7362,3.7323,3.74,3.7421,3.7288,3.7287,3.7287,3.7287,3.7286,3.7195,3.722,3.724,3.7304,3.7352,3.7366,3.7422,3.7423,3.7425,3.7449,3.747,3.7469,3.7469,3.7459,3.7459,3.746,3.746,3.746,3.746,3.7266,3.7288,3.7336,3.7381,3.741,3.7448,3.7478,3.7505,3.7536,3.7533,3.7533,3.7521,3.7407,3.7378,3.7465,3.7464,3.7464,3.7463,3.7463,3.7392,3.7365,3.7439,3.7469,3.7523,3.7571,3.7574,3.7631,3.7654,3.7681,3.7666,3.7581,3.7573,3.7564,3.754,3.7664,3.7664,3.7664,3.7664,3.7456,3.7454,3.7532,3.758,3.7626,3.7637,3.772,3.7745,3.7765,3.7779,3.7762,3.7731,3.7721,3.7719,3.7707,3.7685,3.7842,3.7842,3.7843,3.7534,3.7537,3.7608,3.7631,3.7674,3.7711,3.779,3.7842,3.7859,3.785,3.7791,3.7783,3.7733,3.7716,3.7704,3.7685,3.7644,0,0]}]]